Time,TemperatureF,DewpointF,PressureIn,WindDirection,WindDirectionDegrees,WindSpeedMPH,WindSpeedGustMPH,Humidity,HourlyPrecipIn,Conditions,Clouds,dailyrainin,SoftwareType,DateUTC
2013-06-05 00:10:00,47.1,40.0,30.21,NE,55,0.0,-999.0,75,-99.99,,,0.00,weatherlink.com 1.10,2013-06-05 04:10:00,
2013-06-05 00:25:00,47.0,40.0,30.21,NE,55,0.0,-999.0,77,-99.99,,,0.00,weatherlink.com 1.10,2013-06-05 04:25:00,
2013-06-05 00:40:00,47.0,40.0,30.21,NE,55,0.0,-999.0,77,-99.99,,,0.00,weatherlink.com 1.10,2013-06-05 04:40:00,
2013-06-05 00:55:00,46.8,40.0,30.21,NE,55,0.0,-999.0,76,-99.99,,,0.00,weatherlink.com 1.10,2013-06-05 04:55:00,
2013-06-05 01:10:00,46.9,40.0,30.21,NE,55,0.0,-999.0,76,-99.99,,,0.00,weatherlink.com 1.10,2013-06-05 05:10:00,
2013-06-05 01:42:00,46.8,40.0,30.21,NE,55,0.0,-999.0,78,-99.99,,,0.00,weatherlink.com 1.10,2013-06-05 05:42:00,
2013-06-05 01:56:00,46.7,41.0,30.21,NE,55,0.0,-999.0,80,-99.99,,,0.00,weatherlink.com 1.10,2013-06-05 05:56:00,
2013-06-05 02:11:00,46.4,40.0,30.22,NE,55,0.0,-999.0,79,-99.99,,,0.00,weatherlink.com 1.10,2013-06-05 06:11:00,
2013-06-05 02:26:00,46.1,40.0,30.22,NE,55,0.0,-999.0,78,-99.99,,,0.00,weatherlink.com 1.10,2013-06-05 06:26:00,
2013-06-05 02:56:00,45.4,40.0,30.21,NE,55,0.0,-999.0,81,-99.99,,,0.00,weatherlink.com 1.10,2013-06-05 06:56:00,
2013-06-05 03:11:00,45.3,40.0,30.21,NE,55,0.0,-999.0,82,-99.99,,,0.00,weatherlink.com 1.10,2013-06-05 07:11:00,
2013-06-05 03:26:00,45.3,40.0,30.21,NE,55,0.0,-999.0,83,-99.99,,,0.00,weatherlink.com 1.10,2013-06-05 07:26:00,
2013-06-05 03:56:00,45.6,41.0,30.21,NE,55,0.0,-999.0,84,-99.99,,,0.00,weatherlink.com 1.10,2013-06-05 07:56:00,
2013-06-05 04:11:00,45.6,41.0,30.21,NE,55,0.0,-999.0,84,-99.99,,,0.00,weatherlink.com 1.10,2013-06-05 08:11:00,
2013-06-05 04:41:00,45.6,41.0,30.21,NE,55,0.0,-999.0,84,-99.99,,,0.00,weatherlink.com 1.10,2013-06-05 08:41:00,
2013-06-05 04:56:00,45.6,41.0,30.20,NE,55,0.0,-999.0,85,-99.99,,,0.00,weatherlink.com 1.10,2013-06-05 08:56:00,
2013-06-05 05:11:00,45.5,41.0,30.20,NE,55,0.0,-999.0,84,-99.99,,,0.00,weatherlink.com 1.10,2013-06-05 09:11:00,
2013-06-05 05:25:00,45.3,40.0,30.20,NE,55,0.0,-999.0,82,-99.99,,,0.00,weatherlink.com 1.10,2013-06-05 09:25:00,
2013-06-05 05:41:00,45.3,40.0,30.20,NE,55,0.0,-999.0,83,-99.99,,,0.00,weatherlink.com 1.10,2013-06-05 09:41:00,
2013-06-05 05:56:00,45.4,41.0,30.20,NE,55,0.0,-999.0,84,-99.99,,,0.00,weatherlink.com 1.10,2013-06-05 09:56:00,
2013-06-05 06:11:00,45.5,41.0,30.21,NE,55,0.0,-999.0,85,-99.99,,,0.00,weatherlink.com 1.10,2013-06-05 10:11:00,
2013-06-05 06:26:00,45.5,41.0,30.21,NE,55,0.0,-999.0,85,-99.99,,,0.00,weatherlink.com 1.10,2013-06-05 10:26:00,
2013-06-05 06:41:00,45.8,42.0,30.22,ESE,120,1.0,-999.0,85,-99.99,,,0.00,weatherlink.com 1.10,2013-06-05 10:41:00,
2013-06-05 06:56:00,45.9,42.0,30.22,ESE,120,0.0,-999.0,87,-99.99,,,0.00,weatherlink.com 1.10,2013-06-05 10:56:00,
2013-06-05 07:26:00,46.1,43.0,30.21,ESE,119,0.0,-999.0,88,-99.99,,,0.00,weatherlink.com 1.10,2013-06-05 11:26:00,
2013-06-05 07:41:00,46.7,43.0,30.21,ESE,119,0.0,-999.0,88,-99.99,,,0.00,weatherlink.com 1.10,2013-06-05 11:41:00,
2013-06-05 07:56:00,46.8,44.0,30.21,ESE,120,0.0,-999.0,89,-99.99,,,0.00,weatherlink.com 1.10,2013-06-05 11:56:00,
2013-06-05 08:11:00,46.9,44.0,30.22,ESE,120,0.0,-999.0,89,-99.99,,,0.00,weatherlink.com 1.10,2013-06-05 12:11:00,
2013-06-05 08:26:00,47.1,45.0,30.21,ESE,120,0.0,-999.0,91,-99.99,,,0.00,weatherlink.com 1.10,2013-06-05 12:26:00,
2013-06-05 08:41:00,47.2,45.0,30.21,ESE,119,0.0,-999.0,92,-99.99,,,0.00,weatherlink.com 1.10,2013-06-05 12:41:00,
2013-06-05 09:11:00,47.5,45.0,30.23,NE,44,0.0,-999.0,92,-99.99,,,0.01,weatherlink.com 1.10,2013-06-05 13:11:00,
2013-06-05 09:25:00,48.1,46.0,30.23,NE,44,0.0,-999.0,93,-99.99,,,0.01,weatherlink.com 1.10,2013-06-05 13:25:00,
2013-06-05 09:41:00,48.5,47.0,30.22,NE,44,0.0,-999.0,93,-99.99,,,0.02,weatherlink.com 1.10,2013-06-05 13:41:00,
2013-06-05 09:56:00,48.7,47.0,30.22,NE,44,0.0,-999.0,93,-99.99,,,0.02,weatherlink.com 1.10,2013-06-05 13:56:00,
2013-06-05 10:11:00,49.2,48.0,30.21,NE,44,0.0,-999.0,94,-99.99,,,0.03,weatherlink.com 1.10,2013-06-05 14:11:00,
2013-06-05 10:26:00,49.9,48.0,30.20,NE,44,0.0,-999.0,94,-99.99,,,0.03,weatherlink.com 1.10,2013-06-05 14:26:00,
2013-06-05 10:41:00,50.3,48.0,30.20,NE,44,0.0,-999.0,93,-99.99,,,0.03,weatherlink.com 1.10,2013-06-05 14:41:00,
2013-06-05 11:26:00,50.3,48.0,30.19,NE,44,0.0,-999.0,93,-99.99,,,0.03,weatherlink.com 1.10,2013-06-05 15:26:00,
2013-06-05 11:41:00,50.6,49.0,30.20,ENE,71,0.0,-999.0,93,-99.99,,,0.03,weatherlink.com 1.10,2013-06-05 15:41:00,
2013-06-05 11:56:00,47.0,42.0,30.21,NE,36,1.0,-999.0,83,-99.99,,,0.04,weatherlink.com 1.10,2013-06-05 15:56:00,
2013-06-05 12:11:00,46.4,42.0,30.21,NE,36,0.0,-999.0,85,-99.99,,,0.04,weatherlink.com 1.10,2013-06-05 16:11:00,
2013-06-05 12:26:00,46.4,43.0,30.21,NE,36,0.0,-999.0,87,-99.99,,,0.04,weatherlink.com 1.10,2013-06-05 16:26:00,
2013-06-05 12:41:00,46.6,41.0,30.20,NE,36,0.0,-999.0,82,-99.99,,,0.04,weatherlink.com 1.10,2013-06-05 16:41:00,
2013-06-05 12:56:00,47.0,42.0,30.21,NE,36,0.0,-999.0,83,-99.99,,,0.04,weatherlink.com 1.10,2013-06-05 16:56:00,
2013-06-05 13:10:00,47.8,44.0,30.22,SSW,206,0.0,-999.0,85,-99.99,,,0.04,weatherlink.com 1.10,2013-06-05 17:10:00,
2013-06-05 13:25:00,47.6,44.0,30.22,SSW,206,0.0,-999.0,88,-99.99,,,0.04,weatherlink.com 1.10,2013-06-05 17:25:00,
2013-06-05 13:40:00,47.4,43.0,30.21,SSW,206,0.0,-999.0,83,-99.99,,,0.04,weatherlink.com 1.10,2013-06-05 17:40:00,
2013-06-05 13:55:00,48.2,44.0,30.21,SSW,206,0.0,-999.0,84,-99.99,,,0.04,weatherlink.com 1.10,2013-06-05 17:55:00,
2013-06-05 14:10:00,48.4,44.0,30.20,SSW,206,0.0,-999.0,86,-99.99,,,0.04,weatherlink.com 1.10,2013-06-05 18:10:00,
2013-06-05 14:25:00,48.9,45.0,30.20,SSW,206,0.0,-999.0,87,-99.99,,,0.04,weatherlink.com 1.10,2013-06-05 18:25:00,
2013-06-05 14:40:00,49.3,46.0,30.20,SSW,206,0.0,-999.0,87,-99.99,,,0.04,weatherlink.com 1.10,2013-06-05 18:40:00,
2013-06-05 14:55:00,49.9,47.0,30.19,SSW,206,0.0,-999.0,88,-99.99,,,0.04,weatherlink.com 1.10,2013-06-05 18:55:00,
2013-06-05 15:10:00,50.6,48.0,30.18,SSW,206,0.0,-999.0,89,-99.99,,,0.04,weatherlink.com 1.10,2013-06-05 19:10:00,
2013-06-05 15:25:00,51.3,47.0,30.18,NNE,25,1.0,-999.0,85,-99.99,,,0.04,weatherlink.com 1.10,2013-06-05 19:25:00,
2013-06-05 15:40:00,51.7,48.0,30.17,NNE,24,1.0,-999.0,86,-99.99,,,0.04,weatherlink.com 1.10,2013-06-05 19:40:00,
2013-06-05 15:55:00,51.9,48.0,30.17,NNE,25,0.0,-999.0,86,-99.99,,,0.04,weatherlink.com 1.10,2013-06-05 19:55:00,
2013-06-05 16:10:00,51.9,48.0,30.17,NNE,25,0.0,-999.0,86,-99.99,,,0.05,weatherlink.com 1.10,2013-06-05 20:10:00,
2013-06-05 16:25:00,51.8,48.0,30.16,SSE,161,0.0,-999.0,85,-99.99,,,0.05,weatherlink.com 1.10,2013-06-05 20:25:00,
2013-06-05 16:40:00,52.0,48.0,30.16,SE,138,0.0,-999.0,87,-99.99,,,0.05,weatherlink.com 1.10,2013-06-05 20:40:00,
2013-06-05 16:55:00,52.2,48.0,30.15,SE,138,0.0,-999.0,85,-99.99,,,0.05,weatherlink.com 1.10,2013-06-05 20:55:00,
2013-06-05 17:10:00,52.2,48.0,30.16,ESE,103,0.0,-999.0,85,-99.99,,,0.05,weatherlink.com 1.10,2013-06-05 21:10:00,
2013-06-05 17:26:00,51.3,46.0,30.16,ESE,103,0.0,-999.0,82,-99.99,,,0.05,weatherlink.com 1.10,2013-06-05 21:26:00,
2013-06-05 17:41:00,49.9,45.0,30.16,East,101,0.0,-999.0,83,-99.99,,,0.05,weatherlink.com 1.10,2013-06-05 21:41:00,
2013-06-05 17:56:00,49.1,45.0,30.16,East,101,0.0,-999.0,84,-99.99,,,0.05,weatherlink.com 1.10,2013-06-05 21:56:00,
2013-06-05 18:26:00,48.8,45.0,30.16,East,101,0.0,-999.0,87,-99.99,,,0.05,weatherlink.com 1.10,2013-06-05 22:26:00,
2013-06-05 18:41:00,48.8,45.0,30.16,East,101,0.0,-999.0,86,-99.99,,,0.05,weatherlink.com 1.10,2013-06-05 22:41:00,
2013-06-05 18:56:00,48.8,45.0,30.16,East,101,0.0,-999.0,86,-99.99,,,0.05,weatherlink.com 1.10,2013-06-05 22:56:00,
2013-06-05 19:11:00,48.6,45.0,30.16,East,101,0.0,-999.0,86,-99.99,,,0.05,weatherlink.com 1.10,2013-06-05 23:11:00,
2013-06-05 19:26:00,48.4,45.0,30.15,East,101,1.0,-999.0,87,-99.99,,,0.05,weatherlink.com 1.10,2013-06-05 23:26:00,
2013-06-05 19:41:00,48.2,43.0,30.16,East,101,0.0,-999.0,82,-99.99,,,0.05,weatherlink.com 1.10,2013-06-05 23:41:00,
2013-06-05 19:56:00,47.8,42.0,30.16,East,101,0.0,-999.0,81,-99.99,,,0.05,weatherlink.com 1.10,2013-06-05 23:56:00,
2013-06-05 20:11:00,47.6,42.0,30.16,East,101,0.0,-999.0,81,-99.99,,,0.05,weatherlink.com 1.10,2013-06-06 00:11:00,
2013-06-05 20:26:00,47.3,42.0,30.16,East,101,0.0,-999.0,83,-99.99,,,0.05,weatherlink.com 1.10,2013-06-06 00:26:00,
2013-06-05 20:56:00,46.3,43.0,30.15,East,101,0.0,-999.0,87,-99.99,,,0.05,weatherlink.com 1.10,2013-06-06 00:56:00,
2013-06-05 21:11:00,46.1,43.0,30.15,East,101,0.0,-999.0,88,-99.99,,,0.05,weatherlink.com 1.10,2013-06-06 01:11:00,
2013-06-05 21:26:00,46.0,43.0,30.15,East,101,0.0,-999.0,88,-99.99,,,0.05,weatherlink.com 1.10,2013-06-06 01:26:00,
2013-06-05 21:56:00,45.9,43.0,30.16,East,101,0.0,-999.0,90,-99.99,,,0.05,weatherlink.com 1.10,2013-06-06 01:56:00,
2013-06-05 22:26:00,46.0,44.0,30.15,East,101,0.0,-999.0,91,-99.99,,,0.05,weatherlink.com 1.10,2013-06-06 02:26:00,
2013-06-05 22:56:00,46.0,44.0,30.14,East,101,0.0,-999.0,92,-99.99,,,0.05,weatherlink.com 1.10,2013-06-06 02:56:00,
2013-06-05 23:11:00,46.0,44.0,30.15,East,101,0.0,-999.0,92,-99.99,,,0.05,weatherlink.com 1.10,2013-06-06 03:11:00,
2013-06-05 23:26:00,46.1,44.0,30.15,East,101,0.0,-999.0,93,-99.99,,,0.05,weatherlink.com 1.10,2013-06-06 03:26:00,
2013-06-05 23:41:00,46.2,44.0,30.15,East,101,0.0,-999.0,93,-99.99,,,0.05,weatherlink.com 1.10,2013-06-06 03:41:00,
2013-06-05 23:56:00,46.3,44.0,30.15,East,101,0.0,-999.0,93,-99.99,,,0.05,weatherlink.com 1.10,2013-06-06 03:56:00,